Starlink 1593

operational
NORAD ID: 46119 Int'l Des: 2020-057 Owner: SPXS Country: US Constellation: starlink
LEOCIRCULARSTARLINK_TYPE

Starlink 1593について

説明を読み込み中...

リアルタイム位置

3D地球を読み込み中...

次回通過

高度履歴

Altitude vs Time

uPlot chart will show altitude changes over time

軌道要素

1 46119U 20057C 25307.78400966 .00102535 00000-0 25339-2 0 9992
2 46119 53.0543 158.6204 0001567 135.3499 224.7631 15.39679134288395
Epoch: Nov 3, 2025 • Age: 9 hours

現在のステータス

高度 462.5 km
速度 7.63 km/s
衛星直下点 -43.70°S, 8.97°E
打ち上げ日 Aug 18, 2020
運用期間 5.2 years
タイプ internet

技術仕様

分類 Payload
質量 260.00 kg
乾燥質量 248.00 kg
総質量 260.00 kg
長さ 0.20 m
直径 2.80 m
スパン 9.00 m
形状 Box + pan
製造者 SPXS
バスタイプ Starlink
フェーズステータス In Orbit
所有者/国 SPXS/US

大規模コンステレーション

Loading constellations...